Location: ??????
(38.3184°N, 23.6932°E)
Time: 01:22:40
(UTC+00:00)

YAOGAN 1 - Pass Details

Date: 16 October 2021
Orbit: 618 x 620 km, 97.9° (Epoch: 04 December)

Event Time Altitude Azimuth Distance (km) Brightness Sun altitude
Rises 16:24:15 0° 135° (SE) 2,883 5.6 -8.3°
Reaches altitude 10° 16:26:46 10° 122° (ESE) 1,982 4.7 -8.8°
Maximum altitude 16:30:12 24° 69° (ENE) 1,304 3.7 -9.5°
Drops below altitude 10° 16:33:39 10° 16° (NNE) 1,994 5.0 -10.1°
Sets 16:36:10 0° 2° (N) 2,905 6.0 -10.6°
